Погода в Кокуе

Россия / Свердловская область     57°13′45″N   63°11′47″E
темп.,
°C
ветер,
м/с
пор.,
м/с
влажн.,
%
обл.,
%
осадки,
мм/ч
давл.,
гПа
погр.,
м
11 апреля, вс
вс1123:00+3ю5139773 0.0 1036351
02:00+2ю51496100 0.0 1035365
05:00+2ю6169177 0.0 1035373
08:00+2ю61685100 0.0 1034389
11:00+5ю61688100 0.0 1033408
14:00+8ю61287100 0.0 1032427
17:00+8ююз6128995 0.0 1032457
20:00+7ююз51394100 0.0 1031323
12 апреля, пн
пн1223:00+6юз31194100 0.0 1031239
02:00+7зюз3996100 0.3 1031238
05:00+6з2798100 1.2 1033180
08:00+7сз4793100 0.4 1034587
11:00+8сз3574100 0.4 1036507
14:00+10сз4669100 0.0 10361054
17:00+9сз3664100 0.0 1037638
20:00+6сз22762 0.0 103824
13 апреля, вт
вт1323:00+4ссз22815 0.0 103926
02:00+2ссз11821 0.0 104010
05:00+2зсз11830 0.0 104110
08:00+4з12770 0.0 1041103
11:00+8юз23610 0.0 1040533
14:00+11юз35520 0.0 1038807
17:00+12юз36571 0.0 1037795
20:00+7ююз37765 0.0 1036111
14 апреля, ср
ср1423:00+6ююз310865 0.0 1034177
02:00+6юз3109152 0.0 1032199
05:00+5юз389483 0.0 1032139
08:00+8зюз3989100 0.0 1031268
11:00+13зюз46755 0.0 1029485
14:00+16з466079 0.0 10271062
17:00+17зсз2660100 0.0 10261246
20:00+13з227769 0.0 102511
15 апреля, чт
чт1523:00+10зсз238083 0.0 102541
02:00+9з238233 0.0 102439
05:00+7з38855 0.0 1023133
08:00+9з310725 0.0 1023301
11:00+14з47545 0.0 1021697
14:00+16з46396 0.0 10201305
17:00+17з36415 0.0 10181452
20:00+12зюз22615 0.0 101711